Regional Weather Roundup
Issued by NWS Charleston, SC

Current Version | Previous Version | Graphics & Text | Print | Product List | Glossary On
Versions: 1 2 3 4 5 6 7 8 9 10 11 12 13 14 15 16 17 18 19 20 21 22 23 24 25 26 27 28 29 30 31 32 33 34 35 36 37 38 39 40 41 42 43 44 45 46 47 48 49 50
000
ASUS42 KCHS 251211
RWRCHS

REGIONAL WEATHER ROUNDUP
NATIONAL WEATHER SERVICE CHARLESTON SC
700 AM EST SAT FEB 25 2017

NOTE: "FAIR" INDICATES FEW OR NO CLOUDS BELOW 12,000 FEET WITH NO
SIGNIFICANT WEATHER AND/OR OBSTRUCTIONS TO VISIBILITY.

NOT ALL STATIONS ARE QUALITY CONTROLLED. USE DATA WITH CAUTION...
ESPECIALLY DEWPOINT OBSERVATIONS.

SCZ027-030-031-034>040-042>050-251300-
...SOUTHEAST SOUTH CAROLINA...

CITY           SKY/WX    TMP DP  RH WIND       PRES   REMARKS
N CHARLESTON   PTCLDY    57  56  96 SW6       29.81S
6HR MIN TEMP:  53; 6HR MAX TEMP:  59;

WATERFRONT PRK   N/A     61  61 100 VRB3      29.81R
MOUNT PLEASANT FAIR      59  59 100 CALM      29.82R FOG
JOHNS ISLAND   FAIR      61  61 100 SW5       29.82S FOG
PINOPOLIS        N/A     61  61 100 SW7       29.71R
MONCKS CORNER  FAIR      55  54  94 CALM      29.81S FOG
SUMMERVILLE    PTSUNNY   55  55 100 CALM      29.82S
BEAUFORT MCAS  PTCLDY    63  63 100 SW7       29.82S
6HR MIN TEMP:  55; 6HR MAX TEMP:  63;

BEAUFORT ARPT  PTSUNNY   63  63 100 SW5       29.82S FOG
HILTON HEAD IS PTCLDY    64  64 100 SW9       29.83S
WALTERBORO     FOG       59  59 100 SW6       29.82S VSB 1
ALLENDALE      CLOUDY    61  61 100 VRB6      29.80R

...SOUTHERN MIDLANDS AND PEE DEE...

CITY           SKY/WX    TMP DP  RH WIND       PRES   REMARKS
GEORGETOWN     FOG       50  48  93 SW3       29.83R VSB 1/4
KINGSTREE      FAIR      54  54 100 CALM      29.80S FOG
ORANGEBURG     MOCLDY    57  56  96 SW6       29.80R FOG
6HR MIN TEMP:  56; 6HR MAX TEMP:  61;

BARNWELL       CLOUDY    63  63 100 S6        29.79S FOG
AIKEN          CLOUDY    59  59 100 S7        29.81S
MANNING        FAIR      55  55 100 MISG      29.79F
COLUMBIA       MOCLDY    62  59  90 SW8       29.76F
6HR MIN TEMP:  61; 6HR MAX TEMP:  64;

SUMTER         MOCLDY    58  57  94 S5        29.76F
6HR MIN TEMP:  56; 6HR MAX TEMP:  60;

FLORENCE       CLEAR     57  57 100 SW6       29.79S
6HR MIN TEMP:  53; 6HR MAX TEMP:  58;

MYRTLE BEACH   FOG       54  52  94 CALM      29.82R VSB 1/2
N MYRTLE BEACH FOG       51  51 100 CALM      29.80S VSB 1/2
6HR MIN TEMP:  51; 6HR MAX TEMP:  55;


$$

GAZ063-065-086>088-099>101-113>116-118-119-134>141-150-251300-
...SOUTHEAST GEORGIA...

CITY           SKY/WX    TMP DP  RH WIND       PRES   REMARKS
SAVANNAH ARPT  CLOUDY    62  60  93 SW8       29.83S
6HR MIN TEMP:  57; 6HR MAX TEMP:  62;

HUNTER AAF     CLEAR     62  62 100 SW5       29.81S
6HR MIN TEMP:  58; 6HR MAX TEMP:  63;

FORT STEWART   CLOUDY    63  62  99 SW8       29.82R
6HR MIN TEMP:  58; 6HR MAX TEMP:  63;

STATESBORO     MOCLDY    62  50  64 CALM      29.82S
SYLVANIA       PTSUNNY  N/A N/A N/A SW3       29.82R
CLAXTON        FAIR     N/A N/A N/A CALM      29.83S

...CSRA...CENTRAL AND FAR SOUTHEAST GEORGIA...

CITY           SKY/WX    TMP DP  RH WIND       PRES   REMARKS
THOMSON        PTCLDY    62  62 100 CALM      29.81S
AUGUSTA-BUSH   PTCLDY    63  60  90 S5        29.77S
6HR MIN TEMP:  59; 6HR MAX TEMP:  63;

AUGUSTA-DANIEL MOCLDY    62  58  86 S5        29.78S
SWAINSBORO     PTSUNNY   61  61 100 CALM      29.82R
VIDALIA        MOCLDY    63  63 100 SW6       29.83R
EASTMAN        FAIR      60  60 100 CALM      29.85S
HAZLEHURST     FAIR      64  64 100 SW5       29.83S
ALMA           CLOUDY    62  61  96 S3        29.84S
6HR MIN TEMP:  60; 6HR MAX TEMP:  64;

WAYCROSS       MOCLDY    64  64 100 SW5       29.85S
JESUP          FAIR      63  61  94 CALM      29.85S
BAXLEY         CLOUDY    63  63 100 CALM      29.84S
BRUNSWICK      CLOUDY    63  63 100 CALM      29.86S
SAINT SIMONS   CLOUDY    62  62 100 W6        29.86R
6HR MIN TEMP:  62; 6HR MAX TEMP:  66;


$$

SCZ027-028-034-036>038-045-046-048>050-GAZ119-141-251300-
...LAKE AND SUPPLEMENTAL COASTAL OBSERVATIONS...

STATION/POSITION TIME  TEMP    WIND        PRES    WAVE   SWELL
                       AIR SEA DIR/SP/G            HT/PER HT/PER/DIR
                 (UTC) (F)     (DEG/KT/KT) (MB)    (FT/S) (FT/S/D)
WINYAH BAY       NOT AVBL
LAKE MURRAY      1120   62     210/  8/ 11 1007.5
ACE BASIN NERRS  NOT AVBL
FORT PULASKI     1148   63 63  230/  4/  7 1010.3R
SAPELO ISLAND    1100   64     250/  6     1010.0

$$

ANZ835-935-AMZ111-154-330-350-352-354-370-450-454-472-251300-
...C-MAN AND BUOY OBSERVATIONS...

STATION/POSITION TIME  TEMP    WIND        PRES    WAVE   SWELL
                       AIR SEA DIR/SP/G            HT/PER HT/PER/DIR
                 (UTC) (F)     (DEG/KT/KT) (MB)    (FT/S) (FT/S/D)
BUOY 41004       1050   69 71  220/  4/  6 1008.6    7/11   7/120/11
BUOY 41008       1050   62 62  240/  8/ 10 1009.6    5/11   5/ 60/11
FOLLY BEACH CMAN 1100   61     220/  4/  5 1009.9R
CAPERS NEARSHORE 1108   60 60  250/  6/  8 1009.0R
FRIPP NEARSHORE  1108   62 61  230/  6/  8 1009.4R


STATION/POSITION TIME  TEMP    WIND        PRES    WAVE   SWELL
                       AIR SEA DIR/SP/G            HT/PER HT/PER/DIR
                 (UTC) (F)     (DEG/KT/KT) (MB)    (FT/S) (FT/S/D)
5E ST. MARYS GA  1130      64                N/A     5/11   2/100/11
FRYING PAN BUOY  1150   69 72  220/  4/  6 1008.6R   6/10   7/120/10
BUOY 41025       1150   70 76  310/  4/  6 1008.1R   8/11   8/130/11
CAPE LOOKOUT NC  1100   62     360/  2/  3 1007.9S
BUOY 41002       1050   69 70  190/  6/  8 1007.0   10/10  10/ 90/10
BUOY 41010       NOT AVBL
ST AUGUSTINE FL  1200   62 67  250/  5/  7 1012.3R


$$



USA.gov is the U.S. government's official web portal to all federal, state and local government web resources and services.